Flag for Switzerland Weather past 2 weeks in Küsnacht, Zurich, Switzerland

Now
64 °F

Mild.


Feels Like: 64 °F
Forecast: 58 / 69 °F
Wind: 2 mph from Southeast

Location: Zurich Town / Ville.

Current Time: Aug 2, 2014 at 3:18:56 AM

Latest Report: Aug 2, 2014 at 2:00 AM


Visibility: N/A

Pressure: 29.80 "Hg

Humidity: 90%

Dew point: 61 °F

Location of KüsnachtLocation

Historic Weather in Küsnacht — Graph

°F

Küsnacht temperature yesterday

Maximum temperature yesterday: 76 °F (at 6:00 PM)
Minimum temperature yesterday: 58 °F (at 6:00 AM)
Average temperature yesterday: 66 °F

Past Weeks' High & Low Weather Summary

 TemperatureHumidityPressure
High87 °F (Jul 19, 6:00 PM)99% (Jul 23, 1:00 AM)30.13 "Hg (Jul 23, 1:00 AM)
Low56 °F (Jul 29, 7:00 AM)25% (Jul 18, 3:00 PM)29.72 "Hg (Jul 28, 5:00 PM)
Average66 °F78%29.91 "Hg
* Reported Jul 18 2:00 AM — Aug 2 2:00 AM, Küsnacht, Weather by CustomWeather, © 2014

Note: Actual official high and low records may vary slightly from our data, if they occured in-between our weather recording intervals... More about our weather records

Advertising

Küsnacht weather history for previous 24 hours

 ConditionsComfort  
Time TempWeatherWind HumidityBarometerVisibility
2:00 AM
Aug 2
64 °FMild.2 mph90%29.80 "HgN/A
1:00 AM64 °FMild.1 mph90%29.81 "HgN/A
12:00 AM64 °FMild.1 mph89%29.81 "HgN/A
11:00 PM
Aug 1
66 °FMild.2 mph84%29.81 "HgN/A
10:00 PM66 °FMild.6 mph84%29.79 "HgN/A
9:00 PM69 °FMild.6 mph77%29.78 "HgN/A
8:00 PM72 °FPartly sunny.5 mph68%29.78 "HgN/A
7:00 PM74 °FMild.2 mph60%29.78 "HgN/A
6:00 PM76 °FMild.3 mph55%29.76 "HgN/A
5:00 PM75 °FMild.5 mph60%29.77 "HgN/A
4:00 PM74 °FMild.6 mph62%29.78 "HgN/A
3:00 PM74 °FMild.3 mph68%29.79 "HgN/A
2:00 PM72 °FScattered clouds.5 mph66%29.81 "HgN/A
1:00 PM71 °FMild.6 mph71%29.83 "HgN/A
12:00 PM67 °FMild.3 mph84%29.85 "HgN/A
11:00 AM63 °FMild.2 mph85%29.88 "HgN/A
10:00 AM63 °FMild.2 mph85%29.88 "HgN/A
9:00 AM62 °FCool.3 mph87%29.88 "HgN/A
8:00 AM60 °FPassing clouds.3 mph93%29.89 "HgN/A
7:00 AM58 °FCool.3 mph94%29.90 "HgN/A
6:00 AM58 °FCool.1 mph94%29.90 "HgN/A
5:00 AM58 °FCool.5 mph94%29.91 "HgN/A
4:00 AM58 °FCool.3 mph93%29.91 "HgN/A
3:00 AM59 °FCool.3 mph92%29.92 "HgN/A
Weather by CustomWeather, © 2014

See weather overviewHow to use our weather pages